This is the latest recevied weather packets stored in our database for station/object N6GPM. If no packets are shown the sender has not sent any weather packets the latest 10 day(s).
| Time | Temp. | Humidity | Pressure | Rain* | Wind** | Luminosity | Snow |
|---|---|---|---|---|---|---|---|
| 1788198959 | 28.33° C | 38% | 1018.3 hPa | 0 mm | - | 864 W/m² | - |
| 1788198656 | 27.78° C | 42% | 1018.6 hPa | 0 mm | - | 855 W/m² | - |
| 1788198350 | 27.78° C | 41% | 1018.2 hPa | 0 mm | - | 841 W/m² | - |
| 1788198045 | 27.78° C | 41% | 1018.3 hPa | 0 mm | - | 823 W/m² | - |
| 1788197743 | 26.67° C | 45% | 1018.3 hPa | 0 mm | - | 811 W/m² | - |
| 1788197440 | 27.22° C | 46% | 1018.3 hPa | 0 mm | - | 792 W/m² | - |
| 1788197134 | 26.67° C | 47% | 1018.4 hPa | 0 mm | - | 783 W/m² | - |
| 1788196829 | 26.67° C | 49% | 1018.3 hPa | 0 mm | - | 764 W/m² | - |
| 1788196525 | 26.67° C | 50% | 1018.1 hPa | 0 mm | - | 756 W/m² | - |
| 1788196222 | 26.11° C | 53% | 1018.3 hPa | 0 mm | - | 731 W/m² | - |
| 1788195917 | 26.11° C | 51% | 1018.2 hPa | 0 mm | - | 722 W/m² | - |
| 1788195615 | 25.56° C | 54% | 1018.2 hPa | 0 mm | - | 702 W/m² | - |
| 1788195321 | 25.56° C | 54% | 1018.1 hPa | 0 mm | - | 686 W/m² | - |
| 1788195012 | 25° C | 57% | 1017.9 hPa | 0 mm | - | 669 W/m² | - |
| 1788194708 | 25° C | 58% | 1018 hPa | 0 mm | - | 657 W/m² | - |
| 1788194403 | 24.44° C | 59% | 1018.1 hPa | 0 mm | - | 637 W/m² | - |
| 1788194098 | 25° C | 59% | 1018.2 hPa | 0 mm | - | 618 W/m² | - |
| 1788193796 | 25.56° C | 58% | 1018 hPa | 0 mm | - | 598 W/m² | - |
| 1788193492 | 25° C | 59% | 1018 hPa | 0 mm | - | 577 W/m² | - |
| 1788193190 | 23.89° C | 63% | 1018 hPa | 0 mm | - | 558 W/m² | - |
| 1788192887 | 23.89° C | 63% | 1018.1 hPa | 0 mm | - | 540 W/m² | - |
| 1788192582 | 23.89° C | 64% | 1018 hPa | 0 mm | - | 522 W/m² | - |
| 1788192282 | 23.33° C | 65% | 1018.2 hPa | 0 mm | - | 494 W/m² | - |
| 1788191977 | 23.33° C | 64% | 1018.2 hPa | 0 mm | - | 474 W/m² | - |
| 1788191676 | 23.33° C | 66% | 1018.1 hPa | 0 mm | - | 455 W/m² | - |
* Rain latest hour (hover to see other rain measurements)
** Current wind speed in m/s (hover to see current wind gust speed)